Tracking 35280 objects as of 7-Sep-2026
HD Live streaming from Space Station
objects crossing your sky now

STARLINK-3645

Track STARLINK-3645 now!
10-day predictions
STARLINK-3645 is classified as:


NORAD ID: 51986
Int'l Code: 2022-025AG
Launch date: March 9, 2022
Source: United States (US)
Launch site: AIR FORCE EASTERN TEST RANGE (AFETR)
Your satellite tracking list
Your tracking list is empty




NASA's NSSDC Master Catalog

Two Line Element Set (TLE):
1 51986U 22025AG  26250.16060751  .00000538  00000-0  26329-4 0  9993
2 51986  53.1609 297.8890 0001175  80.9211 279.1925 15.35400093248541
Source of the keplerian elements: AFSPC